This is the latest recevied weather packets stored in our database for station/object W8DRH-13. If no packets are shown the sender has not sent any weather packets the latest 10 day(s).
| Time | Temp. | Humidity | Pressure | Rain* | Wind** | Luminosity | Snow |
|---|---|---|---|---|---|---|---|
| 1778118950 | 8.33° C | 72% | 1011.5 hPa | 0 mm | - | 0 W/m² | - |
| 1778118647 | 8.89° C | 72% | 1011.6 hPa | 0 mm | - | 0 W/m² | - |
| 1778118343 | 8.33° C | 72% | 1011.6 hPa | 0 mm | - | 0 W/m² | - |
| 1778118034 | 8.89° C | 72% | 1011.6 hPa | 0 mm | - | 0 W/m² | - |
| 1778117731 | 8.89° C | 71% | 1011.7 hPa | 0 mm | - | 0 W/m² | - |
| 1778117428 | 9.44° C | 70% | 1011.5 hPa | 0 mm | - | 0 W/m² | - |
| 1778117125 | 9.44° C | 69% | 1011.4 hPa | 0 mm | - | 0 W/m² | - |
| 1778116821 | 9.44° C | 68% | 1011.6 hPa | 0 mm | - | 0 W/m² | - |
| 1778116518 | 10° C | 68% | 1011.7 hPa | 0 mm | - | 0 W/m² | - |
| 1778116209 | 10° C | 69% | 1011.4 hPa | 0 mm | - | 0 W/m² | - |
| 1778115903 | 10° C | 68% | 1011.3 hPa | 0 mm | - | 0 W/m² | - |
| 1778115599 | 10° C | 68% | 1011.1 hPa | 0 mm | - | 0 W/m² | - |
| 1778115297 | 10° C | 68% | 1011.3 hPa | 0 mm | - | 0 W/m² | - |
| 1778114988 | 10° C | 69% | 1011.3 hPa | 0 mm | - | 0 W/m² | - |
| 1778114685 | 10° C | 68% | 1011 hPa | 0 mm | - | 0 W/m² | - |
| 1778114382 | 10.56° C | 71% | 1011 hPa | 0 mm | - | 0 W/m² | - |
| 1778114077 | 10.56° C | 70% | 1011.1 hPa | 0 mm | - | 0 W/m² | - |
| 1778113772 | 10.56° C | 70% | 1011.1 hPa | 0 mm | - | 0 W/m² | - |
| 1778113469 | 10.56° C | 67% | 1010.9 hPa | 0 mm | - | 1 W/m² | - |
| 1778113166 | 10.56° C | 65% | 1010.8 hPa | 0 mm | - | 4 W/m² | - |
| 1778112862 | 10.56° C | 66% | 1010.8 hPa | 0 mm | - | 4 W/m² | - |
| 1778112555 | 11.11° C | 65% | 1010.8 hPa | 0 mm | - | 6 W/m² | - |
| 1778112250 | 11.11° C | 63% | 1010.7 hPa | 0 mm | - | 8 W/m² | - |
| 1778111945 | 11.11° C | 61% | 1010.7 hPa | 0 mm | - | 12 W/m² | - |
| 1778111643 | 11.11° C | 61% | 1010.9 hPa | 0 mm | - | 12 W/m² | - |
* Rain latest hour (hover to see other rain measurements)
** Current wind speed in m/s (hover to see current wind gust speed)